Vorticity
5 7 9 9 8 8 10 7 7 11 13 16 19 16 11 11 13 18 17 16 18 18 21 28 31 30 35
7 10 10 9 8 8 7 12 16 15 17 16 13 11 13 21 20 18 17 16 15 14 17 20 27 27 29
9 10 8 9 7 10 12 14 15 18 15 12 9 14 22 16 17 14 14 18 17 15 13 12 12 14 19
11 9 10 8 10 12 12 13 18 16 12 9 15 21 17 15 17 14 11 13 14 14 13 13 13 12 12
8 9 10 11 11 15 17 13 14 16 8 13 15 14 12 16 19 21 10 9 8 7 5 2 3 5 4
11 11 13 13 16 15 11 10 15 14 8 15 11 14 14 17 16 17 19 15 13 9 8 9 10 10 10
12 13 16 15 11 11 11 12 14 14 6 12 12 15 16 19 15 16 14 12 15 17 18 17 18 18 17
16 19 16 10 10 10 11 10 14 12 9 11 13 16 18 22 17 14 12 15 15 9 8 9 11 13 14
19 16 8 9 10 10 10 9 15 13 9 13 15 20 21 21 16 13 13 6 5 7 14 10 12 12 5
16 7 8 9 10 8 11 13 15 12 9 13 15 15 26 14 13 7 9 6 8 9 10 11 10 9 10
7 7 7 9 12 12 15 16 13 11 9 9 12 10 12 12 -2 14 13 8 8 10 6 6 7 10 12
5 6 9 14 13 14 15 16 14 10 13 10 10 8 7 8 11 9 10 8 9 9 7 8 8 9 12
4 5 9 13 14 16 13 15 17 10 11 11 11 8 5 4 2 2 6 8 9 11 10 9 7 6 10
3 3 5 10 14 14 13 13 18 16 12 11 10 10 10 9 8 9 8 7 6 5 6 8 13 11 8
6 5 5 6 11 14 13 12 12 12 15 13 11 12 12 11 13 12 12 13 14 13 13 12 14 13 12
11 11 9 7 8 12 13 11 11 10 11 12 12 15 17 17 14 17 15 13 14 15 15 12 13 12 10
9 11 12 11 9 10 11 12 9 10 9 12 12 11 11 12 12 14 11 13 12 14 14 14 14 15 15
Height
3065 3059 3054 3047 3042 3036 3029 3026 3022 3017 3011 3004 2997 2991 2985 2977 2970 2963 2958 2953 2950 2947 2945 2943 2942 2941 2943
3055 3049 3043 3036 3031 3024 3018 3012 3006 3000 2993 2986 2982 2977 2972 2964 2957 2951 2946 2942 2940 2937 2934 2932 2930 2928 2927
3045 3039 3034 3027 3021 3014 3008 3002 2996 2990 2983 2977 2972 2965 2958 2951 2946 2941 2937 2933 2931 2929 2926 2924 2922 2919 2917
3036 3030 3024 3018 3010 3002 2996 2991 2986 2980 2974 2968 2961 2955 2947 2941 2936 2932 2929 2926 2924 2921 2919 2916 2914 2912 2909
3027 3021 3015 3008 2999 2992 2985 2978 2976 2967 2961 2958 2950 2943 2937 2933 2928 2924 2921 2919 2918 2915 2913 2910 2907 2905 2903
3017 3011 3004 2997 2989 2982 2974 2968 2963 2960 2950 2948 2938 2934 2929 2924 2919 2916 2914 2912 2911 2908 2905 2902 2900 2897 2895
3007 3001 2994 2987 2980 2973 2968 2962 2956 2951 2941 2937 2933 2929 2923 2918 2913 2910 2908 2905 2903 2900 2897 2895 2892 2890 2888
3000 2994 2986 2980 2973 2965 2959 2953 2949 2944 2935 2931 2928 2923 2917 2913 2909 2906 2903 2900 2897 2895 2892 2890 2888 2885 2882
2993 2986 2979 2973 2966 2959 2953 2945 2942 2941 2933 2927 2922 2917 2913 2909 2906 2903 2900 2897 2894 2891 2888 2885 2882 2879 2877
2985 2979 2973 2967 2960 2952 2945 2939 2935 2933 2929 2922 2917 2911 2909 2906 2903 2900 2897 2894 2891 2887 2883 2880 2877 2873 2870
2977 2972 2966 2959 2952 2947 2941 2934 2928 2927 2920 2916 2913 2909 2904 2901 2900 2897 2893 2890 2887 2884 2880 2877 2873 2868 2864
2970 2964 2959 2954 2949 2943 2936 2930 2924 2918 2916 2911 2907 2903 2900 2897 2894 2892 2888 2885 2881 2878 2875 2872 2868 2864 2860
2963 2959 2954 2949 2943 2937 2931 2925 2921 2915 2910 2905 2901 2897 2893 2890 2888 2885 2881 2879 2876 2872 2869 2865 2861 2858 2854
2958 2953 2948 2943 2936 2930 2925 2920 2915 2912 2906 2900 2895 2891 2887 2884 2880 2878 2874 2869 2868 2864 2860 2858 2855 2851 2847
2951 2946 2941 2935 2930 2923 2918 2913 2908 2904 2901 2896 2891 2886 2882 2877 2875 2871 2866 2863 2859 2855 2852 2850 2848 2844 2840
2943 2938 2932 2927 2922 2917 2911 2907 2902 2898 2894 2889 2884 2881 2878 2875 2867 2864 2861 2856 2853 2850 2846 2841 2840 2838 2833
2934 2929 2924 2919 2914 2910 2905 2900 2896 2892 2888 2883 2877 2872 2869 2866 2865 2858 2853 2851 2847 2845 2840 2836 2832 2830 2826